When you browse on this site, cookies collect data to enhance your experience and personalize the content and advertising you see.
Visit our Privacy Policy to learn more. By continuing to use the site, you agree to this use of cookies and data.
  • Em Portugal
  • Lista de países
  • Para 7 dias
  • Temperatura da água
  • Mapas de satélite
  • Mapa do tempo
  • Widgets de tempo
  • user-avatar
    Iniciar Sessão

    Previsão horária em Lovech

    Hoje, 19 Abril, Sexta-feira

    Tempo Temperatura Precipitação Vento Pressão Humidade
    00:00 +5°C° 0 mm 1 m/s 744 mmHg 89%
    01:00 +5°C° 0 mm 1 m/s 744 mmHg 86%
    02:00 +5°C° 0 mm 1 m/s 743 mmHg 85%
    03:00 +5°C° 0 mm 1 m/s 743 mmHg 84%
    04:00 +6°C° 0 mm 1 m/s 743 mmHg 83%
    05:00 +6°C° 0 mm 1 m/s 743 mmHg 83%
    06:00 +7°C° 0 mm 1 m/s 743 mmHg 80%
    07:00 +7°C° 0 mm 2 m/s 743 mmHg 78%
    08:00 +8°C° 0 mm 3 m/s 743 mmHg 76%
    09:00 +10°C° 0 mm 3 m/s 742 mmHg 69%
    10:00 +12°C° 0 mm 3 m/s 742 mmHg 62%
    11:00 +13°C° 0 mm 4 m/s 742 mmHg 55%
    12:00 +14°C° 0 mm 4 m/s 742 mmHg 54%
    13:00 +15°C° 0 mm 4 m/s 741 mmHg 52%
    14:00 +15°C° 0 mm 5 m/s 741 mmHg 50%
    15:00 +15°C° 0.5 mm 4 m/s 740 mmHg 54%
    16:00 +15°C° 0.5 mm 4 m/s 740 mmHg 57%
    17:00 +14°C° 0.5 mm 4 m/s 740 mmHg 61%
    18:00 +12°C° 0.7 mm 3 m/s 740 mmHg 71%
    19:00 +10°C° 0.7 mm 2 m/s 740 mmHg 82%
    20:00 +8°C° 0.7 mm 2 m/s 741 mmHg 92%
    21:00 +9°C° 0.1 mm 1 m/s 741 mmHg 89%
    22:00 +9°C° 0.1 mm 1 m/s 742 mmHg 87%
    23:00 +9°C° 0.1 mm 1 m/s 742 mmHg 84%

    Amanhã, 20 Abril, Sábado

    Tempo Temperatura Precipitação Vento Pressão Humidade
    00:00 +8°C° 0 mm 1 m/s 742 mmHg 82%
    01:00 +8°C° 0 mm 1 m/s 742 mmHg 81%
    02:00 +7°C° 0 mm 0 m/s 743 mmHg 79%
    03:00 +6°C° 0 mm 0 m/s 743 mmHg 82%
    04:00 +5°C° 0 mm 0 m/s 743 mmHg 84%
    05:00 +5°C° 0 mm 0 m/s 743 mmHg 87%
    06:00 +7°C° 0 mm 1 m/s 743 mmHg 84%
    07:00 +8°C° 0 mm 1 m/s 743 mmHg 82%
    08:00 +9°C° 0 mm 1 m/s 744 mmHg 79%
    09:00 +10°C° 0.1 mm 1 m/s 744 mmHg 71%
    10:00 +10°C° 0.1 mm 2 m/s 744 mmHg 63%
    11:00 +11°C° 0.1 mm 3 m/s 744 mmHg 55%
    12:00 +11°C° 0 mm 3 m/s 744 mmHg 52%
    13:00 +11°C° 0 mm 3 m/s 744 mmHg 50%
    14:00 +12°C° 0 mm 3 m/s 743 mmHg 47%
    15:00 +13°C° 0 mm 2 m/s 743 mmHg 47%
    16:00 +13°C° 0 mm 2 m/s 743 mmHg 47%
    17:00 +12°C° 0 mm 1 m/s 743 mmHg 48%
    18:00 +10°C° 0 mm 2 m/s 743 mmHg 52%
    19:00 +8°C° 0 mm 2 m/s 743 mmHg 56%
    20:00 +7°C° 0 mm 2 m/s 744 mmHg 60%
    21:00 +6°C° 0 mm 2 m/s 744 mmHg 58%
    22:00 +6°C° 0 mm 2 m/s 744 mmHg 56%
    23:00 +6°C° 0 mm 2 m/s 744 mmHg 54%

    Depois de amanhã, 21 Abril, Domingo

    Tempo Temperatura Precipitação Vento Pressão Humidade
    00:00 +6°C° 0 mm 2 m/s 744 mmHg 55%
    01:00 +5°C° 0 mm 2 m/s 744 mmHg 56%
    02:00 +6°C° 0 mm 1 m/s 743 mmHg 57%
    03:00 +6°C° 0 mm 1 m/s 743 mmHg 59%
    04:00 +6°C° 0 mm 1 m/s 743 mmHg 60%
    05:00 +6°C° 0 mm 1 m/s 743 mmHg 62%
    06:00 +7°C° 0 mm 1 m/s 743 mmHg 59%
    07:00 +9°C° 0 mm 1 m/s 743 mmHg 57%
    08:00 +11°C° 0 mm 1 m/s 743 mmHg 54%
    09:00 +12°C° 0 mm 1 m/s 743 mmHg 51%
    10:00 +14°C° 0 mm 1 m/s 742 mmHg 48%
    11:00 +15°C° 0 mm 1 m/s 742 mmHg 45%
    12:00 +15°C° 0 mm 1 m/s 742 mmHg 45%
    13:00 +16°C° 0 mm 1 m/s 741 mmHg 44%
    14:00 +16°C° 0 mm 1 m/s 741 mmHg 44%
    15:00 +16°C° 0 mm 1 m/s 741 mmHg 44%
    16:00 +16°C° 0 mm 1 m/s 740 mmHg 45%
    17:00 +15°C° 0 mm 1 m/s 740 mmHg 46%
    18:00 +14°C° 0 mm 1 m/s 740 mmHg 51%
    19:00 +12°C° 0 mm 2 m/s 740 mmHg 57%
    20:00 +9°C° 0 mm 2 m/s 741 mmHg 62%
    21:00 +9°C° 0 mm 2 m/s 741 mmHg 64%
    22:00 +8°C° 0 mm 2 m/s 741 mmHg 67%
    23:00 +8°C° 0 mm 2 m/s 741 mmHg 69%

    22 Abril, Segunda-feira

    Tempo Temperatura Precipitação Vento Pressão Humidade
    00:00 +7°C° 0 mm 2 m/s 741 mmHg 71%
    01:00 +7°C° 0 mm 2 m/s 741 mmHg 73%
    02:00 +7°C° 0 mm 2 m/s 741 mmHg 75%
    03:00 +7°C° 0 mm 2 m/s 741 mmHg 76%
    04:00 +6°C° 0 mm 2 m/s 741 mmHg 77%
    05:00 +6°C° 0 mm 2 m/s 741 mmHg 77%
    06:00 +8°C° 0 mm 2 m/s 741 mmHg 73%
    07:00 +9°C° 0 mm 2 m/s 741 mmHg 68%
    08:00 +12°C° 0 mm 1 m/s 742 mmHg 64%
    09:00 +14°C° 0 mm 2 m/s 742 mmHg 58%
    10:00 +14°C° 0 mm 3 m/s 742 mmHg 53%
    11:00 +17°C° 0 mm 3 m/s 742 mmHg 47%
    12:00 +17°C° 0 mm 3 m/s 741 mmHg 46%
    13:00 +18°C° 0 mm 4 m/s 741 mmHg 46%
    14:00 +18°C° 0 mm 4 m/s 741 mmHg 45%
    15:00 +18°C° 0 mm 4 m/s 741 mmHg 48%
    16:00 +18°C° 0 mm 4 m/s 740 mmHg 50%
    17:00 +17°C° 0 mm 4 m/s 740 mmHg 53%
    18:00 +14°C° 0 mm 4 m/s 740 mmHg 59%
    19:00 +12°C° 0 mm 4 m/s 741 mmHg 66%
    20:00 +10°C° 0 mm 4 m/s 741 mmHg 72%
    21:00 +10°C° 0 mm 3 m/s 741 mmHg 73%
    22:00 +9°C° 0 mm 3 m/s 741 mmHg 74%
    23:00 +8°C° 0 mm 3 m/s 741 mmHg 74%

    23 Abril, Terça-feira

    Tempo Temperatura Precipitação Vento Pressão Humidade
    00:00 +8°C° 0 mm 3 m/s 742 mmHg 72%
    01:00 +8°C° 0 mm 3 m/s 742 mmHg 70%
    02:00 +7°C° 0 mm 2 m/s 742 mmHg 68%
    03:00 +7°C° 0 mm 2 m/s 742 mmHg 67%
    04:00 +7°C° 0 mm 2 m/s 742 mmHg 67%
    05:00 +8°C° 0 mm 2 m/s 742 mmHg 66%
    06:00 +8°C° 0 mm 2 m/s 742 mmHg 67%
    07:00 +9°C° 0 mm 2 m/s 742 mmHg 69%
    08:00 +9°C° 0 mm 2 m/s 742 mmHg 70%
    09:00 +11°C° 0.1 mm 3 m/s 742 mmHg 67%
    10:00 +12°C° 0.1 mm 3 m/s 742 mmHg 64%
    11:00 +14°C° 0.1 mm 3 m/s 742 mmHg 60%
    12:00 +14°C° 0.7 mm 3 m/s 742 mmHg 63%
    13:00 +13°C° 0.7 mm 3 m/s 741 mmHg 65%
    14:00 +13°C° 0.7 mm 3 m/s 741 mmHg 67%
    15:00 +14°C° 0.1 mm 3 m/s 741 mmHg 67%
    16:00 +14°C° 0.1 mm 4 m/s 740 mmHg 67%
    17:00 +14°C° 0.1 mm 4 m/s 740 mmHg 66%
    18:00 +13°C° 0 mm 3 m/s 740 mmHg 70%
    19:00 +12°C° 0 mm 3 m/s 741 mmHg 73%
    20:00 +10°C° 0 mm 3 m/s 741 mmHg 76%
    21:00 +10°C° 0 mm 2 m/s 741 mmHg 76%
    22:00 +10°C° 0 mm 2 m/s 741 mmHg 76%
    23:00 +10°C° 0 mm 2 m/s 741 mmHg 77%

    24 Abril, Quarta-feira

    Tempo Temperatura Precipitação Vento Pressão Humidade
    00:00 +11°C° 0.1 mm 1 m/s 741 mmHg 78%
    01:00 +11°C° 0.1 mm 1 m/s 741 mmHg 80%
    02:00 +11°C° 0.1 mm 1 m/s 741 mmHg 82%
    03:00 +10°C° 0.1 mm 1 m/s 742 mmHg 85%
    04:00 +10°C° 0.1 mm 1 m/s 742 mmHg 87%
    05:00 +9°C° 0.1 mm 1 m/s 742 mmHg 89%
    06:00 +10°C° 0 mm 1 m/s 742 mmHg 85%
    07:00 +12°C° 0 mm 1 m/s 742 mmHg 81%
    08:00 +13°C° 0 mm 1 m/s 743 mmHg 77%
    09:00 +14°C° 0 mm 1 m/s 743 mmHg 73%
    10:00 +16°C° 0 mm 2 m/s 743 mmHg 69%
    11:00 +17°C° 0 mm 2 m/s 743 mmHg 65%
    12:00 +18°C° 0 mm 2 m/s 742 mmHg 65%
    13:00 +18°C° 0 mm 2 m/s 742 mmHg 64%
    14:00 +19°C° 0 mm 3 m/s 742 mmHg 64%
    15:00 +19°C° 0 mm 3 m/s 742 mmHg 66%
    16:00 +19°C° 0 mm 3 m/s 742 mmHg 68%
    17:00 +18°C° 0 mm 3 m/s 742 mmHg 70%
    18:00 +17°C° 0 mm 3 m/s 742 mmHg 76%
    19:00 +15°C° 0 mm 2 m/s 742 mmHg 83%
    20:00 +13°C° 0 mm 2 m/s 742 mmHg 90%
    21:00 +13°C° 0 mm 2 m/s 742 mmHg 90%
    22:00 +12°C° 0 mm 2 m/s 742 mmHg 91%
    23:00 +12°C° 0 mm 2 m/s 743 mmHg 91%
    Mostrar mais